Weather in Aleksandrovka

Russia / Rostov Oblast     46°47′07″N   38°59′50″E
temp.,
°C
wind,
m/s
gust,
m/s
humid.,
%
clouds,
%
prec.,
mm/h
press.,
hPa
HPBL,
m
16 may, sun
sun1600:00+17nnw335931 0.0 101232
03:00+16n356295 0.0 101166
06:00+17ne2481100 0.4 101179
09:00+22ene4574100 0.4 1010326
12:00+26ene5765100 0.0 1008961
15:00+27e7755100 0.0 1007958
18:00+23e51068100 0.0 1005418
21:00+20ene512710 0.0 1003183
17 may, mon
mon1700:00+19e615505 0.0 1003366
03:00+16e410600 0.1 1004227
06:00+15ese510715 0.0 1004180
09:00+22ssw5769100 0.0 1006584
12:00+24wsw4561100 0.1 1007844
15:00+22wsw4466100 0.2 1007633
18:00+19nne1287100 0.6 100735
21:00+16wsw3591100 0.6 1009108
18 may, tue
tue1800:00+15sw3894100 0.1 1010215
03:00+14wsw4996100 0.3 1008306
06:00+14sw3696100 2.6 1010272
09:00+17sw458492 3.0 1009624
12:00+19sw577794 0.0 10101010
15:00+21wsw79580 0.1 10101397
18:00+19wsw477461 0.0 1010681
21:00+14ssw2288100 0.0 101025
19 may, wed
wed1900:00+14se33935 0.0 101037
03:00+13s3696100 0.0 1010137
06:00+14ssw4988100 0.1 1010524
09:00+16ssw81078100 0.2 10111019
12:00+19sw10145419 0.2 10121889
15:00+17wsw7137040 0.3 10121072
18:00+16sw7137858 0.6 10131105
21:00+15wsw71569100 0.6 10141120
20 may, thu
thu2000:00+13ssw613845 0.0 1015430
03:00+12ssw513950 0.0 1016373
06:00+13ssw410931 0.0 1017299
09:00+19sw566334 0.0 1017871
12:00+21wsw335069 0.0 10171328
15:00+23sse11475 0.0 10161509
18:00+21e35630 0.0 1016396
21:00+16ese49823 0.0 1016150